Location: Castiglione Fibocchi
(43.5333°N, 11.7667°E)
Time: 14:22:28
(UTC+00:00)

Cosmos 2227 Rocket - Pass Details

Date: 15 August 2020
Orbit: 840 x 843 km, 71.0° (Epoch: 24 September)

Event Time Altitude Azimuth Distance (km) Brightness Sun altitude
Exits shadow 01:18:25 14° 294° (WNW) 2,167 4.2 -26.2°
Maximum altitude 01:20:11 16° 315° (NW) 2,053 4.3 -26.0°
Drops below altitude 10° 01:23:40 10° 353° (N) 2,471 5.2 -25.7°
Sets 01:27:08 0° 15° (NNE) 3,409 6.5 -25.3°
